Home   Weather   Nelson   Past weeks

Flag for Canada Past Weather in Nelson, British Columbia, Canada — Yesterday and Last 2 Weeks

Now
55 °F

Cool.


Feels Like: 55 °F
Forecast: 49 / 78 °F
Wind: 3 mph from Southeast

Location: Nelson

Current Time: Sep 25, 2016 at 10:33:48 PM

Latest Report: Sep 25, 2016 at 10:00 PM


Visibility: N/A

Pressure: 30.43 "Hg (28.46 "Hg at 560m altitude)

Humidity: 72%

Dew Point: 46 °F

Location of NelsonLocation

Past Weather in Nelson — Graph

°F

Nelson Temperature Yesterday

Maximum temperature yesterday: 69 °F (at 2:00 PM)
Minimum temperature yesterday: 48 °F (at 8:00 AM)
Average temperature yesterday: 55 °F

High & Low Weather Summary for the Past Weeks

 TemperatureHumidityPressure
High79 °F (Sep 16, 2:00 PM)94% (Sep 17, 4:00 PM)30.44 "Hg (Sep 17, 4:00 PM)
Low38 °F (Sep 13, 6:00 AM)22% (Sep 12, 5:00 PM)29.72 "Hg (Sep 17, 8:00 PM)
Average55 °F69%30.06 "Hg
* Reported Sep 10 9:00 PM — Sep 25 9:00 PM, Nelson, Weather by CustomWeather, © 2016

Note: Actual official high and low records may vary slightly from our data, if they occured in-between our weather recording intervals... More about our weather records

Advertising

Nelson Weather History for the Previous 24 Hours

Scroll right to see more
 ConditionsComfort  
Time TempWeatherWind HumidityBarometerVisibility
9:00 PM
Sun, Sep 25
56 °FCool.3 mph70%30.44 "HgN/A
8:00 PM56 °FCool.3 mph69%30.43 "HgN/A
7:00 PM54 °FCool.3 mph74%30.42 "HgN/A
6:00 PM59 °FCool.5 mph61%30.42 "HgN/A
5:00 PM59 °FRefreshingly cool.3 mph58%30.42 "HgN/A
4:00 PM59 °FRefreshingly cool.6 mph59%30.42 "HgN/A
3:00 PM60 °FRefreshingly cool.7 mph57%30.42 "HgN/A
2:00 PM59 °FRefreshingly cool.5 mph53%30.43 "HgN/A
1:00 PM58 °FRefreshingly cool.3 mph57%30.43 "HgN/A
12:00 PM57 °FCool.2 mph61%30.44 "HgN/A
11:00 AM54 °FCool.1 mph69%30.44 "HgN/A
10:00 AM53 °FCool.1 mph75%30.44 "HgN/A
9:00 AM51 °FCool.3 mph79%30.42 "HgN/A
8:00 AM50 °FCool.2 mph82%30.43 "HgN/A
7:00 AM50 °FCool.5 mph84%30.42 "HgN/A
6:00 AM48 °FCool.1 mph82%30.40 "HgN/A
5:00 AM50 °FCool.2 mph75%30.39 "HgN/A
4:00 AM49 °FCool.3 mph79%30.39 "HgN/A
3:00 AM48 °FCool.1 mph80%30.38 "HgN/A
2:00 AM47 °FCool.2 mph84%30.38 "HgN/A
1:00 AM49 °FCool.3 mph81%30.39 "HgN/A
12:00 AM49 °FCool.3 mph80%30.39 "HgN/A
11:00 PM
Sat, Sep 24
48 °FCool.3 mph79%30.37 "HgN/A
10:00 PM49 °FCool.5 mph77%30.37 "HgN/A
Weather by CustomWeather, © 2016

See weather overviewHow to use our weather pages